Time,TemperatureF,DewpointF,PressureIn,WindDirection,WindDirectionDegrees,WindSpeedMPH,WindSpeedGustMPH,Humidity,HourlyPrecipIn,Conditions,Clouds,dailyrainin,SoftwareType,DateUTC
2013-05-16 00:03:00,64.9,60.0,29.93,SSE,157,0.0,0.0,84,0.00,,,0.00,WUHU21623XXSP,2013-05-16 05:03:00,
2013-05-16 00:08:00,64.9,60.0,29.93,South,180,0.0,0.0,84,0.00,,,0.00,WUHU21623XXSP,2013-05-16 05:08:00,
2013-05-16 00:13:00,64.9,59.6,29.92,South,180,0.0,0.0,83,0.00,,,0.00,WUHU21623XXSP,2013-05-16 05:13:00,
2013-05-16 00:18:00,64.9,59.6,29.92,SSE,157,0.0,0.0,83,0.00,,,0.00,WUHU21623XXSP,2013-05-16 05:18:00,
2013-05-16 00:23:00,64.9,59.6,29.92,SSW,202,0.0,0.0,83,0.00,,,0.00,WUHU21623XXSP,2013-05-16 05:23:00,
2013-05-16 00:28:00,64.9,59.6,29.92,South,180,0.0,0.0,83,0.00,,,0.00,WUHU21623XXSP,2013-05-16 05:28:00,
2013-05-16 00:33:00,64.8,59.5,29.92,SSE,157,0.0,0.0,83,0.00,,,0.00,WUHU21623XXSP,2013-05-16 05:33:00,
2013-05-16 00:38:00,64.6,59.3,29.93,South,180,0.0,0.0,83,0.00,,,0.00,WUHU21623XXSP,2013-05-16 05:38:00,
2013-05-16 00:43:00,64.6,59.3,29.93,SSW,202,0.0,0.0,83,0.00,,,0.00,WUHU21623XXSP,2013-05-16 05:43:00,
2013-05-16 00:48:00,64.6,59.3,29.93,South,180,0.0,0.0,83,0.00,,,0.00,WUHU21623XXSP,2013-05-16 05:48:00,
2013-05-16 00:53:00,64.6,59.3,29.93,SSE,157,0.0,0.0,83,0.00,,,0.00,WUHU21623XXSP,2013-05-16 05:53:00,
2013-05-16 00:58:00,64.6,59.3,29.93,South,180,0.0,5.6,83,0.00,,,0.00,WUHU21623XXSP,2013-05-16 05:58:00,
2013-05-16 01:03:00,64.6,59.3,29.93,South,180,0.0,5.6,83,0.00,,,0.00,WUHU21623XXSP,2013-05-16 06:03:00,
2013-05-16 01:08:00,64.4,59.1,29.93,South,180,0.0,0.0,83,0.00,,,0.00,WUHU21623XXSP,2013-05-16 06:08:00,
2013-05-16 01:13:00,64.4,59.1,29.93,SSE,157,0.0,0.0,83,0.00,,,0.00,WUHU21623XXSP,2013-05-16 06:13:00,
2013-05-16 01:18:00,64.4,59.1,29.92,South,180,0.0,0.0,83,0.00,,,0.00,WUHU21623XXSP,2013-05-16 06:18:00,
2013-05-16 01:23:00,64.2,58.9,29.92,South,180,0.0,0.0,83,0.00,,,0.00,WUHU21623XXSP,2013-05-16 06:23:00,
2013-05-16 01:28:00,64.2,58.9,29.92,SSE,157,0.0,0.0,83,0.00,,,0.00,WUHU21623XXSP,2013-05-16 06:28:00,
2013-05-16 01:33:00,64.2,58.9,29.92,South,180,0.0,0.0,83,0.00,,,0.00,WUHU21623XXSP,2013-05-16 06:33:00,
2013-05-16 01:38:00,64.2,58.9,29.92,SSE,157,0.0,0.0,83,0.00,,,0.00,WUHU21623XXSP,2013-05-16 06:38:00,
2013-05-16 01:43:00,64.2,58.9,29.91,South,180,0.0,0.0,83,0.00,,,0.00,WUHU21623XXSP,2013-05-16 06:43:00,
2013-05-16 01:48:00,64.2,58.9,29.91,South,180,0.0,1.3,83,0.00,,,0.00,WUHU21623XXSP,2013-05-16 06:48:00,
2013-05-16 01:53:00,64.2,58.6,29.91,South,180,0.0,1.3,82,0.00,,,0.00,WUHU21623XXSP,2013-05-16 06:53:00,
2013-05-16 01:58:00,64.0,58.4,29.90,SSW,202,0.0,0.0,82,0.00,,,0.00,WUHU21623XXSP,2013-05-16 06:58:00,
2013-05-16 02:03:00,64.0,58.4,29.91,South,180,0.0,0.0,82,0.00,,,0.00,WUHU21623XXSP,2013-05-16 07:03:00,
2013-05-16 02:08:00,64.0,58.4,29.91,South,180,0.0,0.0,82,0.00,,,0.00,WUHU21623XXSP,2013-05-16 07:08:00,
2013-05-16 02:13:00,64.0,58.4,29.90,South,180,0.0,0.0,82,0.00,,,0.00,WUHU21623XXSP,2013-05-16 07:13:00,
2013-05-16 02:18:00,63.9,58.2,29.90,South,180,0.0,0.0,82,0.00,,,0.00,WUHU21623XXSP,2013-05-16 07:18:00,
2013-05-16 02:23:00,63.7,58.1,29.90,South,180,0.0,0.0,82,0.00,,,0.00,WUHU21623XXSP,2013-05-16 07:23:00,
2013-05-16 02:28:00,63.7,58.1,29.90,SSE,157,0.0,0.0,82,0.00,,,0.00,WUHU21623XXSP,2013-05-16 07:28:00,
2013-05-16 02:33:00,63.7,58.1,29.90,SSE,157,0.0,0.0,82,0.00,,,0.00,WUHU21623XXSP,2013-05-16 07:33:00,
2013-05-16 02:38:00,63.5,57.9,29.90,SSE,157,0.0,0.0,82,0.00,,,0.00,WUHU21623XXSP,2013-05-16 07:38:00,
2013-05-16 02:43:00,63.3,57.7,29.89,SSE,157,0.0,0.0,82,0.00,,,0.00,WUHU21623XXSP,2013-05-16 07:43:00,
2013-05-16 02:48:00,63.1,57.5,29.90,SSE,157,0.0,0.0,82,0.00,,,0.00,WUHU21623XXSP,2013-05-16 07:48:00,
2013-05-16 02:53:00,63.1,57.5,29.90,SSE,157,0.0,0.0,82,0.00,,,0.00,WUHU21623XXSP,2013-05-16 07:53:00,
2013-05-16 02:58:00,62.8,57.2,29.91,SSE,157,0.0,0.0,82,0.00,,,0.00,WUHU21623XXSP,2013-05-16 07:58:00,
2013-05-16 03:03:00,62.8,57.2,29.91,SSE,157,0.0,0.0,82,0.00,,,0.00,WUHU21623XXSP,2013-05-16 08:03:00,
2013-05-16 03:08:00,62.6,57.0,29.91,SSE,157,0.0,0.0,83,0.00,,,0.00,WUHU21623XXSP,2013-05-16 08:08:00,
2013-05-16 03:13:00,62.6,57.3,29.90,SSE,157,0.0,0.0,83,0.00,,,0.00,WUHU21623XXSP,2013-05-16 08:13:00,
2013-05-16 03:18:00,62.8,57.5,29.90,SE,135,0.0,0.0,83,0.00,,,0.00,WUHU21623XXSP,2013-05-16 08:18:00,
2013-05-16 03:23:00,62.8,57.8,29.90,SSE,157,0.0,0.0,84,0.00,,,0.00,WUHU21623XXSP,2013-05-16 08:23:00,
2013-05-16 03:28:00,63.0,58.0,29.90,ESE,112,0.0,0.0,84,0.00,,,0.00,WUHU21623XXSP,2013-05-16 08:28:00,
2013-05-16 03:33:00,63.0,57.7,29.90,ESE,112,0.0,0.0,83,0.00,,,0.00,WUHU21623XXSP,2013-05-16 08:33:00,
2013-05-16 03:38:00,63.0,57.7,29.90,SW,225,0.0,0.0,83,0.00,,,0.00,WUHU21623XXSP,2013-05-16 08:38:00,
2013-05-16 03:43:00,63.0,57.7,29.90,SW,225,0.0,0.0,83,0.00,,,0.00,WUHU21623XXSP,2013-05-16 08:43:00,
2013-05-16 03:48:00,62.8,57.5,29.90,South,180,0.0,0.0,83,0.00,,,0.00,WUHU21623XXSP,2013-05-16 08:48:00,
2013-05-16 03:53:00,63.0,58.0,29.90,South,180,0.0,0.0,84,0.00,,,0.00,WUHU21623XXSP,2013-05-16 08:53:00,
2013-05-16 03:58:00,63.1,58.2,29.90,SSW,202,0.0,0.0,84,0.00,,,0.00,WUHU21623XXSP,2013-05-16 08:58:00,
2013-05-16 04:03:00,63.1,57.9,29.90,South,180,0.0,0.0,83,0.00,,,0.00,WUHU21623XXSP,2013-05-16 09:03:00,
2013-05-16 04:08:00,63.3,58.0,29.90,SSE,157,0.0,0.0,83,0.00,,,0.00,WUHU21623XXSP,2013-05-16 09:08:00,
2013-05-16 04:13:00,63.5,58.2,29.91,South,180,0.0,0.0,83,0.00,,,0.00,WUHU21623XXSP,2013-05-16 09:13:00,
2013-05-16 04:18:00,63.7,58.4,29.90,SSE,157,0.0,0.0,83,0.00,,,0.00,WUHU21623XXSP,2013-05-16 09:18:00,
2013-05-16 04:23:00,63.7,58.1,29.90,South,180,0.0,0.0,82,0.00,,,0.00,WUHU21623XXSP,2013-05-16 09:23:00,
2013-05-16 04:28:00,63.9,58.2,29.90,South,180,0.0,0.0,82,0.00,,,0.00,WUHU21623XXSP,2013-05-16 09:28:00,
2013-05-16 04:33:00,63.7,58.1,29.90,SSE,157,0.0,0.0,82,0.00,,,0.00,WUHU21623XXSP,2013-05-16 09:33:00,
2013-05-16 04:38:00,63.7,58.1,29.91,SSE,157,0.0,0.0,82,0.00,,,0.00,WUHU21623XXSP,2013-05-16 09:38:00,
2013-05-16 04:43:00,63.7,58.1,29.90,South,180,0.0,0.0,82,0.00,,,0.00,WUHU21623XXSP,2013-05-16 09:43:00,
2013-05-16 04:48:00,63.7,57.7,29.91,SSE,157,0.0,0.0,81,0.00,,,0.00,WUHU21623XXSP,2013-05-16 09:48:00,
2013-05-16 04:53:00,63.7,57.7,29.91,SSW,202,0.0,0.0,81,0.00,,,0.00,WUHU21623XXSP,2013-05-16 09:53:00,
2013-05-16 04:58:00,63.7,57.7,29.90,South,180,0.0,0.0,81,0.00,,,0.00,WUHU21623XXSP,2013-05-16 09:58:00,
2013-05-16 05:03:00,63.7,57.7,29.90,SSW,202,0.0,0.0,81,0.00,,,0.00,WUHU21623XXSP,2013-05-16 10:03:00,
2013-05-16 05:08:00,63.5,57.5,29.90,South,180,0.0,0.0,81,0.00,,,0.00,WUHU21623XXSP,2013-05-16 10:08:00,
2013-05-16 05:13:00,63.5,57.5,29.90,South,180,0.0,0.0,81,0.00,,,0.00,WUHU21623XXSP,2013-05-16 10:13:00,
2013-05-16 05:18:00,63.3,57.4,29.90,South,180,0.0,0.0,81,0.00,,,0.00,WUHU21623XXSP,2013-05-16 10:18:00,
2013-05-16 05:23:00,63.1,57.2,29.91,South,180,0.0,0.0,81,0.00,,,0.00,WUHU21623XXSP,2013-05-16 10:23:00,
2013-05-16 05:28:00,63.1,57.2,29.91,SSE,157,0.0,0.0,81,0.00,,,0.00,WUHU21623XXSP,2013-05-16 10:28:00,
2013-05-16 05:33:00,63.0,57.0,29.91,South,180,0.0,0.0,81,0.00,,,0.00,WUHU21623XXSP,2013-05-16 10:33:00,
2013-05-16 05:38:00,63.0,57.0,29.91,South,180,0.0,0.0,81,0.00,,,0.00,WUHU21623XXSP,2013-05-16 10:38:00,
2013-05-16 05:43:00,62.8,57.2,29.91,SSE,157,0.0,0.0,82,0.00,,,0.00,WUHU21623XXSP,2013-05-16 10:43:00,
2013-05-16 05:48:00,62.8,57.2,29.91,SSE,157,0.0,0.0,82,0.00,,,0.00,WUHU21623XXSP,2013-05-16 10:48:00,
2013-05-16 05:53:00,62.8,57.2,29.91,SSE,157,0.0,0.0,82,0.00,,,0.00,WUHU21623XXSP,2013-05-16 10:53:00,
2013-05-16 05:58:00,62.4,56.8,29.91,SSE,157,0.0,0.0,82,0.00,,,0.00,WUHU21623XXSP,2013-05-16 10:58:00,
2013-05-16 06:03:00,62.4,56.8,29.91,SSE,157,0.0,0.0,82,0.00,,,0.00,WUHU21623XXSP,2013-05-16 11:03:00,
2013-05-16 06:08:00,62.2,56.6,29.90,SSE,157,0.0,0.0,82,0.00,,,0.00,WUHU21623XXSP,2013-05-16 11:08:00,
2013-05-16 06:13:00,62.1,56.1,29.91,SSE,157,0.0,0.0,81,0.00,,,0.00,WUHU21623XXSP,2013-05-16 11:13:00,
2013-05-16 06:18:00,61.9,56.3,29.91,SSE,157,0.0,0.0,82,0.00,,,0.00,WUHU21623XXSP,2013-05-16 11:18:00,
2013-05-16 06:23:00,61.9,56.3,29.91,SSE,157,0.0,0.0,82,0.00,,,0.00,WUHU21623XXSP,2013-05-16 11:23:00,
2013-05-16 06:28:00,61.7,56.2,29.91,SSE,157,0.0,0.0,82,0.00,,,0.00,WUHU21623XXSP,2013-05-16 11:28:00,
2013-05-16 06:33:00,61.7,56.2,29.91,SSE,157,0.0,0.0,82,0.00,,,0.00,WUHU21623XXSP,2013-05-16 11:33:00,
2013-05-16 06:38:00,61.5,56.3,29.91,SSE,157,0.0,0.0,83,0.00,,,0.00,WUHU21623XXSP,2013-05-16 11:38:00,
2013-05-16 06:43:00,61.5,56.3,29.92,SSE,157,0.0,0.0,83,0.00,,,0.00,WUHU21623XXSP,2013-05-16 11:43:00,
2013-05-16 06:48:00,61.5,56.3,29.92,SSE,157,0.0,0.0,83,0.00,,,0.00,WUHU21623XXSP,2013-05-16 11:48:00,
2013-05-16 06:53:00,61.7,56.5,29.92,SSE,157,0.0,0.0,83,0.00,,,0.00,WUHU21623XXSP,2013-05-16 11:53:00,
2013-05-16 06:58:00,61.7,56.5,29.92,South,180,0.0,0.0,83,0.00,,,0.00,WUHU21623XXSP,2013-05-16 11:58:00,
2013-05-16 07:03:00,61.9,56.6,29.92,South,180,0.0,0.0,83,0.00,,,0.00,WUHU21623XXSP,2013-05-16 12:03:00,
2013-05-16 07:08:00,61.9,56.6,29.92,South,180,0.0,0.0,83,0.00,,,0.00,WUHU21623XXSP,2013-05-16 12:08:00,
2013-05-16 07:13:00,61.7,56.5,29.93,South,180,0.0,0.0,83,0.00,,,0.00,WUHU21623XXSP,2013-05-16 12:13:00,
2013-05-16 07:18:00,61.9,56.6,29.93,South,180,0.0,0.0,83,0.00,,,0.00,WUHU21623XXSP,2013-05-16 12:18:00,
2013-05-16 07:23:00,61.9,56.6,29.93,South,180,0.0,0.0,83,0.00,,,0.00,WUHU21623XXSP,2013-05-16 12:23:00,
2013-05-16 07:28:00,61.9,56.6,29.93,South,180,0.0,0.0,83,0.00,,,0.00,WUHU21623XXSP,2013-05-16 12:28:00,
2013-05-16 07:33:00,61.9,56.6,29.93,South,180,0.0,0.0,83,0.00,,,0.00,WUHU21623XXSP,2013-05-16 12:33:00,
2013-05-16 07:38:00,61.9,56.6,29.93,South,180,0.0,0.0,83,0.00,,,0.00,WUHU21623XXSP,2013-05-16 12:38:00,
2013-05-16 07:43:00,61.9,56.6,29.94,South,180,0.0,0.0,83,0.00,,,0.00,WUHU21623XXSP,2013-05-16 12:43:00,
2013-05-16 07:48:00,61.9,56.6,29.94,South,180,0.0,0.0,83,0.00,,,0.00,WUHU21623XXSP,2013-05-16 12:48:00,
2013-05-16 07:53:00,62.1,57.1,29.94,South,180,0.0,0.0,84,0.00,,,0.00,WUHU21623XXSP,2013-05-16 12:53:00,
2013-05-16 07:58:00,62.1,57.1,29.94,South,180,0.0,0.0,84,0.00,,,0.00,WUHU21623XXSP,2013-05-16 12:58:00,
2013-05-16 08:03:00,62.1,57.1,29.94,South,180,0.0,0.0,84,0.00,,,0.00,WUHU21623XXSP,2013-05-16 13:03:00,
2013-05-16 08:08:00,62.2,57.3,29.94,South,180,0.0,0.0,84,0.00,,,0.00,WUHU21623XXSP,2013-05-16 13:08:00,
2013-05-16 08:13:00,62.2,57.3,29.95,South,180,0.0,0.0,84,0.00,,,0.00,WUHU21623XXSP,2013-05-16 13:13:00,
2013-05-16 08:18:00,62.2,57.3,29.95,South,180,0.0,0.0,84,0.00,,,0.00,WUHU21623XXSP,2013-05-16 13:18:00,
2013-05-16 08:23:00,62.2,57.7,29.95,South,180,0.0,0.0,85,0.00,,,0.00,WUHU21623XXSP,2013-05-16 13:23:00,
2013-05-16 08:28:00,62.2,57.7,29.94,South,180,0.0,0.0,85,0.00,,,0.00,WUHU21623XXSP,2013-05-16 13:28:00,
2013-05-16 08:33:00,62.4,57.8,29.95,South,180,0.0,0.0,85,0.00,,,0.00,WUHU21623XXSP,2013-05-16 13:33:00,
2013-05-16 08:38:00,62.4,57.8,29.95,South,180,0.0,0.0,85,0.00,,,0.00,WUHU21623XXSP,2013-05-16 13:38:00,
2013-05-16 08:43:00,62.4,57.8,29.94,South,180,0.0,0.0,85,0.00,,,0.00,WUHU21623XXSP,2013-05-16 13:43:00,
2013-05-16 08:48:00,62.4,57.8,29.94,South,180,0.0,0.0,85,0.00,,,0.00,WUHU21623XXSP,2013-05-16 13:48:00,
2013-05-16 08:53:00,62.6,58.0,29.94,South,180,0.0,0.0,85,0.00,,,0.00,WUHU21623XXSP,2013-05-16 13:53:00,
2013-05-16 08:58:00,62.8,58.2,29.94,South,180,0.0,0.0,85,0.00,,,0.00,WUHU21623XXSP,2013-05-16 13:58:00,
2013-05-16 09:03:00,63.0,58.2,29.95,South,180,0.0,0.0,85,0.00,,,0.00,WUHU21623XXSP,2013-05-16 14:03:00,
2013-05-16 09:08:00,63.1,58.5,29.94,South,180,0.0,0.0,85,0.00,,,0.00,WUHU21623XXSP,2013-05-16 14:08:00,
2013-05-16 09:13:00,63.1,58.5,29.94,South,180,0.0,0.0,85,0.00,,,0.00,WUHU21623XXSP,2013-05-16 14:13:00,
2013-05-16 09:18:00,63.3,58.7,29.94,South,180,0.0,0.0,85,0.00,,,0.00,WUHU21623XXSP,2013-05-16 14:18:00,
2013-05-16 09:23:00,63.7,58.7,29.94,South,180,0.0,0.0,84,0.00,,,0.00,WUHU21623XXSP,2013-05-16 14:23:00,
2013-05-16 09:28:00,64.0,59.5,29.95,SSE,157,0.0,0.0,85,0.00,,,0.00,WUHU21623XXSP,2013-05-16 14:28:00,
2013-05-16 09:33:00,64.2,59.6,29.94,SSE,157,0.0,0.0,84,0.00,,,0.00,WUHU21623XXSP,2013-05-16 14:33:00,
2013-05-16 09:38:00,64.6,59.6,29.94,South,180,0.0,0.0,84,0.00,,,0.00,WUHU21623XXSP,2013-05-16 14:38:00,
2013-05-16 09:43:00,64.6,59.6,29.95,South,180,0.0,0.0,84,0.00,,,0.00,WUHU21623XXSP,2013-05-16 14:43:00,
2013-05-16 09:48:00,64.6,59.6,29.94,South,180,0.0,0.0,84,0.00,,,0.00,WUHU21623XXSP,2013-05-16 14:48:00,
2013-05-16 09:53:00,64.6,59.3,29.94,South,180,0.0,0.0,83,0.00,,,0.00,WUHU21623XXSP,2013-05-16 14:53:00,
2013-05-16 09:58:00,64.6,59.3,29.94,South,180,0.0,0.0,83,0.00,,,0.00,WUHU21623XXSP,2013-05-16 14:58:00,
2013-05-16 10:03:00,64.6,59.3,29.95,South,180,0.0,0.0,83,0.00,,,0.00,WUHU21623XXSP,2013-05-16 15:03:00,
2013-05-16 10:08:00,64.6,59.3,29.95,South,180,0.0,0.0,83,0.00,,,0.00,WUHU21623XXSP,2013-05-16 15:08:00,
2013-05-16 10:13:00,64.6,59.3,29.95,South,180,0.0,0.0,83,0.00,,,0.00,WUHU21623XXSP,2013-05-16 15:13:00,
2013-05-16 10:18:00,64.6,59.3,29.95,South,180,0.0,0.0,83,0.00,,,0.00,WUHU21623XXSP,2013-05-16 15:18:00,
2013-05-16 10:23:00,64.6,59.3,29.95,South,180,0.0,0.0,83,0.00,,,0.00,WUHU21623XXSP,2013-05-16 15:23:00,
2013-05-16 10:28:00,64.6,59.3,29.95,South,180,0.0,0.0,83,0.00,,,0.00,WUHU21623XXSP,2013-05-16 15:28:00,
2013-05-16 10:33:00,64.6,59.3,29.95,South,180,0.0,0.0,83,0.00,,,0.00,WUHU21623XXSP,2013-05-16 15:33:00,
2013-05-16 10:38:00,64.6,59.3,29.95,South,180,0.0,0.0,83,0.00,,,0.00,WUHU21623XXSP,2013-05-16 15:38:00,
2013-05-16 10:43:00,64.2,59.3,29.95,South,180,0.0,0.0,84,0.00,,,0.00,WUHU21623XXSP,2013-05-16 15:43:00,
2013-05-16 10:48:00,64.2,59.3,29.95,South,180,0.0,0.0,84,0.00,,,0.00,WUHU21623XXSP,2013-05-16 15:48:00,
2013-05-16 10:53:00,64.2,59.3,29.95,South,180,0.0,0.0,84,0.00,,,0.00,WUHU21623XXSP,2013-05-16 15:53:00,
2013-05-16 10:58:00,64.2,59.3,29.95,South,180,0.0,0.0,84,0.00,,,0.00,WUHU21623XXSP,2013-05-16 15:58:00,
2013-05-16 11:03:00,64.2,59.3,29.94,South,180,0.0,0.0,84,0.00,,,0.00,WUHU21623XXSP,2013-05-16 16:03:00,
2013-05-16 11:08:00,64.0,59.1,29.94,South,180,0.0,0.0,84,0.00,,,0.00,WUHU21623XXSP,2013-05-16 16:08:00,
2013-05-16 11:13:00,64.2,59.3,29.95,South,180,0.0,0.0,84,0.00,,,0.00,WUHU21623XXSP,2013-05-16 16:13:00,
2013-05-16 11:18:00,64.2,59.3,29.94,South,180,0.0,0.0,84,0.00,,,0.00,WUHU21623XXSP,2013-05-16 16:18:00,
2013-05-16 11:23:00,64.6,59.6,29.94,South,180,0.0,0.0,84,0.00,,,0.00,WUHU21623XXSP,2013-05-16 16:23:00,
2013-05-16 11:28:00,64.6,59.6,29.94,South,180,0.0,0.0,84,0.00,,,0.00,WUHU21623XXSP,2013-05-16 16:28:00,
2013-05-16 11:33:00,64.9,60.0,29.94,South,180,0.0,0.0,84,0.00,,,0.00,WUHU21623XXSP,2013-05-16 16:33:00,
2013-05-16 11:38:00,65.3,60.3,29.94,South,180,0.0,0.0,84,0.00,,,0.00,WUHU21623XXSP,2013-05-16 16:38:00,
2013-05-16 11:43:00,65.5,60.2,29.94,SSW,202,0.0,0.0,83,0.00,,,0.00,WUHU21623XXSP,2013-05-16 16:43:00,
2013-05-16 11:48:00,65.8,60.5,29.94,SSW,202,0.0,0.0,83,0.00,,,0.00,WUHU21623XXSP,2013-05-16 16:48:00,
2013-05-16 11:53:00,66.0,60.7,29.94,South,180,0.0,0.0,83,0.00,,,0.00,WUHU21623XXSP,2013-05-16 16:53:00,
2013-05-16 11:59:00,66.0,60.4,29.94,South,180,0.0,0.0,82,0.00,,,0.00,WUHU21623XXSP,2013-05-16 16:59:00,
2013-05-16 12:04:00,66.0,60.0,29.94,SSW,202,0.0,0.0,81,0.00,,,0.00,WUHU21623XXSP,2013-05-16 17:04:00,
2013-05-16 12:09:00,66.2,60.2,29.93,South,180,0.0,0.0,81,0.00,,,0.00,WUHU21623XXSP,2013-05-16 17:09:00,
2013-05-16 12:14:00,66.4,60.4,29.94,South,180,0.0,0.0,81,0.00,,,0.00,WUHU21623XXSP,2013-05-16 17:14:00,
2013-05-16 12:19:00,66.6,60.6,29.94,South,180,0.0,0.0,81,0.00,,,0.00,WUHU21623XXSP,2013-05-16 17:19:00,
2013-05-16 12:24:00,66.7,60.4,29.93,South,180,0.0,0.0,80,0.00,,,0.00,WUHU21623XXSP,2013-05-16 17:24:00,
2013-05-16 12:29:00,66.7,60.4,29.93,South,180,0.0,0.0,80,0.00,,,0.00,WUHU21623XXSP,2013-05-16 17:29:00,
2013-05-16 12:34:00,66.9,60.6,29.93,South,180,0.0,0.0,80,0.00,,,0.00,WUHU21623XXSP,2013-05-16 17:34:00,
2013-05-16 12:39:00,66.9,60.6,29.93,South,180,0.0,0.0,80,0.00,,,0.00,WUHU21623XXSP,2013-05-16 17:39:00,
2013-05-16 12:44:00,66.9,60.6,29.93,South,180,0.0,0.0,80,0.00,,,0.00,WUHU21623XXSP,2013-05-16 17:44:00,
2013-05-16 12:49:00,66.7,60.4,29.93,SSW,202,0.0,0.0,80,0.00,,,0.00,WUHU21623XXSP,2013-05-16 17:49:00,
2013-05-16 12:54:00,66.7,60.1,29.93,South,180,0.0,0.0,79,0.00,,,0.00,WUHU21623XXSP,2013-05-16 17:54:00,
2013-05-16 12:59:00,66.9,60.2,29.93,SSE,157,2.0,2.0,79,0.00,,,0.00,WUHU21623XXSP,2013-05-16 17:59:00,
2013-05-16 13:04:00,67.3,60.6,29.93,South,180,0.0,2.0,79,0.00,,,0.00,WUHU21623XXSP,2013-05-16 18:04:00,
2013-05-16 13:09:00,67.3,60.2,29.93,South,180,0.0,0.0,78,0.00,,,0.00,WUHU21623XXSP,2013-05-16 18:09:00,
2013-05-16 13:14:00,67.5,60.4,29.93,South,180,0.0,0.7,78,0.00,,,0.00,WUHU21623XXSP,2013-05-16 18:14:00,
2013-05-16 13:19:00,67.6,60.6,29.93,SSW,202,0.0,0.7,78,0.00,,,0.00,WUHU21623XXSP,2013-05-16 18:19:00,
2013-05-16 13:24:00,67.5,60.0,29.93,SSW,202,0.0,5.4,77,0.00,,,0.00,WUHU21623XXSP,2013-05-16 18:24:00,
2013-05-16 13:29:00,67.3,59.8,29.93,SSW,202,0.0,5.4,77,0.00,,,0.00,WUHU21623XXSP,2013-05-16 18:29:00,
2013-05-16 13:34:00,67.1,59.7,29.93,SSE,157,2.5,2.5,77,0.00,,,0.00,WUHU21623XXSP,2013-05-16 18:34:00,
2013-05-16 13:39:00,67.1,60.0,29.93,SSE,157,6.3,6.3,78,0.00,,,0.00,WUHU21623XXSP,2013-05-16 18:39:00,
2013-05-16 13:44:00,67.3,60.2,29.93,South,180,0.0,6.3,78,0.00,,,0.00,WUHU21623XXSP,2013-05-16 18:44:00,
2013-05-16 13:49:00,67.6,60.2,29.92,South,180,0.0,6.3,77,0.00,,,0.00,WUHU21623XXSP,2013-05-16 18:49:00,
2013-05-16 13:54:00,68.2,60.4,29.92,South,180,2.9,2.9,76,0.00,,,0.00,WUHU21623XXSP,2013-05-16 18:54:00,
2013-05-16 13:59:00,68.2,60.4,29.92,South,180,2.2,2.9,76,0.00,,,0.00,WUHU21623XXSP,2013-05-16 18:59:00,
2013-05-16 14:04:00,68.2,60.4,29.92,SSE,157,0.0,2.2,76,0.00,,,0.00,WUHU21623XXSP,2013-05-16 19:04:00,
2013-05-16 14:09:00,68.4,60.5,29.92,South,180,0.0,2.2,76,0.00,,,0.00,WUHU21623XXSP,2013-05-16 19:09:00,
2013-05-16 14:14:00,68.5,60.5,29.92,South,180,0.0,0.0,76,0.00,,,0.00,WUHU21623XXSP,2013-05-16 19:14:00,
2013-05-16 14:19:00,69.1,61.5,29.92,South,180,0.0,0.0,77,0.00,,,0.00,WUHU21623XXSP,2013-05-16 19:19:00,
2013-05-16 14:24:00,69.4,61.5,29.92,SW,225,0.0,0.0,75,0.00,,,0.00,WUHU21623XXSP,2013-05-16 19:24:00,
2013-05-16 14:29:00,69.3,61.1,29.92,SSW,202,0.0,0.0,75,0.00,,,0.00,WUHU21623XXSP,2013-05-16 19:29:00,
2013-05-16 14:34:00,69.1,60.8,29.92,South,180,0.0,0.0,75,0.00,,,0.00,WUHU21623XXSP,2013-05-16 19:34:00,
2013-05-16 14:39:00,69.1,61.2,29.92,SSW,202,0.0,0.0,76,0.00,,,0.00,WUHU21623XXSP,2013-05-16 19:39:00,
2013-05-16 14:44:00,69.3,60.8,29.92,SSW,202,0.2,0.2,75,0.00,,,0.00,WUHU21623XXSP,2013-05-16 19:44:00,
2013-05-16 14:49:00,69.1,60.8,29.92,SSE,157,0.0,0.2,75,0.00,,,0.00,WUHU21623XXSP,2013-05-16 19:49:00,
2013-05-16 14:54:00,68.7,60.5,29.92,South,180,0.0,0.2,75,0.00,,,0.00,WUHU21623XXSP,2013-05-16 19:54:00,
2013-05-16 14:59:00,68.7,60.5,29.91,South,180,0.0,0.0,75,0.00,,,0.00,WUHU21623XXSP,2013-05-16 19:59:00,
2013-05-16 15:04:00,68.7,60.5,29.92,South,180,0.0,3.4,75,0.00,,,0.00,WUHU21623XXSP,2013-05-16 20:04:00,
2013-05-16 15:09:00,68.7,60.5,29.91,South,180,0.0,3.4,75,0.00,,,0.00,WUHU21623XXSP,2013-05-16 20:09:00,
2013-05-16 15:14:00,68.7,60.8,29.91,SSW,202,0.0,0.0,76,0.00,,,0.00,WUHU21623XXSP,2013-05-16 20:14:00,
2013-05-16 15:19:00,68.9,60.6,29.91,South,180,1.3,1.3,75,0.00,,,0.00,WUHU21623XXSP,2013-05-16 20:19:00,
2013-05-16 15:24:00,68.9,60.6,29.91,SW,225,0.0,1.3,75,0.00,,,0.00,WUHU21623XXSP,2013-05-16 20:24:00,
2013-05-16 15:29:00,68.9,60.6,29.91,SSE,157,0.0,1.3,75,0.00,,,0.00,WUHU21623XXSP,2013-05-16 20:29:00,
2013-05-16 15:34:00,68.7,60.5,29.91,South,180,0.0,0.0,75,0.00,,,0.00,WUHU21623XXSP,2013-05-16 20:34:00,
2013-05-16 15:39:00,68.7,60.5,29.91,South,180,0.0,0.0,75,0.00,,,0.00,WUHU21623XXSP,2013-05-16 20:39:00,
2013-05-16 15:44:00,68.7,60.5,29.91,SW,225,0.0,0.0,75,0.00,,,0.00,WUHU21623XXSP,2013-05-16 20:44:00,
2013-05-16 15:49:00,68.5,60.3,29.91,SW,225,0.0,0.0,75,0.00,,,0.00,WUHU21623XXSP,2013-05-16 20:49:00,
2013-05-16 15:54:00,68.7,60.5,29.91,SW,225,0.0,0.0,75,0.00,,,0.00,WUHU21623XXSP,2013-05-16 20:54:00,
2013-05-16 15:59:00,68.5,60.3,29.91,SW,225,0.0,0.0,75,0.00,,,0.00,WUHU21623XXSP,2013-05-16 20:59:00,
2013-05-16 16:04:00,68.5,60.3,29.91,SW,225,0.0,0.0,75,0.00,,,0.00,WUHU21623XXSP,2013-05-16 21:04:00,
2013-05-16 16:09:00,68.4,60.1,29.91,SSW,202,0.0,0.0,75,0.00,,,0.00,WUHU21623XXSP,2013-05-16 21:09:00,
2013-05-16 16:14:00,68.4,60.1,29.91,SSW,202,2.0,2.0,75,0.00,,,0.00,WUHU21623XXSP,2013-05-16 21:14:00,
2013-05-16 16:19:00,68.5,60.7,29.91,SSW,202,0.0,2.0,76,0.00,,,0.00,WUHU21623XXSP,2013-05-16 21:19:00,
2013-05-16 16:24:00,68.7,60.8,29.91,SSW,202,0.0,2.0,76,0.00,,,0.00,WUHU21623XXSP,2013-05-16 21:24:00,
2013-05-16 16:29:00,68.7,60.5,29.91,South,180,0.0,0.0,75,0.00,,,0.00,WUHU21623XXSP,2013-05-16 21:29:00,
2013-05-16 16:34:00,68.5,60.5,29.91,South,180,0.0,0.0,75,0.00,,,0.00,WUHU21623XXSP,2013-05-16 21:34:00,
2013-05-16 16:39:00,68.4,60.3,29.91,SSW,202,0.0,0.0,76,0.00,,,0.00,WUHU21623XXSP,2013-05-16 21:39:00,
2013-05-16 16:44:00,67.8,60.4,29.91,SSW,202,0.0,0.0,76,0.00,,,0.00,WUHU21623XXSP,2013-05-16 21:44:00,
2013-05-16 16:49:00,66.9,59.5,29.90,South,180,0.0,0.7,77,0.00,,,0.00,WUHU21623XXSP,2013-05-16 21:49:00,
2013-05-16 16:54:00,66.9,59.9,29.90,South,180,0.0,0.7,78,0.00,,,0.00,WUHU21623XXSP,2013-05-16 21:54:00,
2013-05-16 16:59:00,66.9,60.2,29.90,SSE,157,0.0,0.0,79,0.00,,,0.00,WUHU21623XXSP,2013-05-16 21:59:00,
2013-05-16 17:04:00,67.3,60.2,29.90,SSE,157,0.0,0.0,78,0.00,,,0.00,WUHU21623XXSP,2013-05-16 22:04:00,
2013-05-16 17:09:00,67.8,61.1,29.90,SSW,202,0.0,0.0,79,0.00,,,0.00,WUHU21623XXSP,2013-05-16 22:09:00,
2013-05-16 17:14:00,68.2,61.5,29.90,South,180,0.0,0.0,79,0.00,,,0.00,WUHU21623XXSP,2013-05-16 22:14:00,
2013-05-16 17:19:00,68.5,61.4,29.90,South,180,0.0,0.0,78,0.00,,,0.00,WUHU21623XXSP,2013-05-16 22:19:00,
2013-05-16 17:24:00,68.7,61.2,29.90,South,180,0.0,0.0,77,0.00,,,0.00,WUHU21623XXSP,2013-05-16 22:24:00,
2013-05-16 17:29:00,68.9,61.4,29.89,South,180,0.0,0.0,77,0.00,,,0.00,WUHU21623XXSP,2013-05-16 22:29:00,
2013-05-16 17:34:00,69.3,61.7,29.89,South,180,0.0,0.0,77,0.00,,,0.00,WUHU21623XXSP,2013-05-16 22:34:00,
2013-05-16 17:39:00,69.4,61.5,29.89,South,180,0.0,0.0,76,0.00,,,0.00,WUHU21623XXSP,2013-05-16 22:39:00,
2013-05-16 17:44:00,69.4,61.9,29.89,South,180,0.0,0.0,76,0.00,,,0.00,WUHU21623XXSP,2013-05-16 22:44:00,
2013-05-16 17:49:00,69.4,61.5,29.89,South,180,0.0,0.0,76,0.00,,,0.00,WUHU21623XXSP,2013-05-16 22:49:00,
2013-05-16 17:54:00,69.4,61.5,29.89,South,180,0.0,0.0,76,0.00,,,0.00,WUHU21623XXSP,2013-05-16 22:54:00,
2013-05-16 17:59:00,69.3,61.3,29.89,SSE,157,0.0,0.0,76,0.00,,,0.00,WUHU21623XXSP,2013-05-16 22:59:00,
2013-05-16 18:04:00,68.7,61.0,29.89,SSE,157,0.0,0.0,76,0.00,,,0.00,WUHU21623XXSP,2013-05-16 23:04:00,
2013-05-16 18:09:00,68.7,60.8,29.89,SSE,157,0.0,0.0,76,0.00,,,0.00,WUHU21623XXSP,2013-05-16 23:09:00,
2013-05-16 18:14:00,68.5,60.7,29.89,SSE,157,0.0,0.0,76,0.00,,,0.00,WUHU21623XXSP,2013-05-16 23:14:00,
2013-05-16 18:19:00,68.2,60.7,29.89,SSE,157,0.0,0.0,77,0.00,,,0.00,WUHU21623XXSP,2013-05-16 23:19:00,
2013-05-16 18:24:00,67.8,60.4,29.89,SSE,157,0.0,0.0,77,0.00,,,0.00,WUHU21623XXSP,2013-05-16 23:24:00,
2013-05-16 18:29:00,67.8,60.4,29.89,SSE,157,0.0,0.0,77,0.00,,,0.00,WUHU21623XXSP,2013-05-16 23:29:00,
2013-05-16 18:34:00,67.6,60.2,29.89,SSE,157,0.0,0.0,77,0.00,,,0.00,WUHU21623XXSP,2013-05-16 23:34:00,
2013-05-16 18:39:00,67.6,60.6,29.89,SSE,157,0.0,0.0,78,0.00,,,0.00,WUHU21623XXSP,2013-05-16 23:39:00,
2013-05-16 18:44:00,67.6,60.6,29.89,SSE,157,0.0,0.0,78,0.00,,,0.00,WUHU21623XXSP,2013-05-16 23:44:00,
2013-05-16 18:49:00,67.6,60.6,29.89,SSE,157,0.0,0.0,78,0.00,,,0.00,WUHU21623XXSP,2013-05-16 23:49:00,
2013-05-16 18:54:00,67.8,60.8,29.89,SSE,157,0.0,0.0,78,0.00,,,0.00,WUHU21623XXSP,2013-05-16 23:54:00,
2013-05-16 18:59:00,67.8,60.8,29.88,SSE,157,0.0,0.0,78,0.00,,,0.00,WUHU21623XXSP,2013-05-16 23:59:00,
2013-05-16 19:04:00,68.2,61.5,29.89,SSE,157,0.0,0.0,79,0.00,,,0.00,WUHU21623XXSP,2013-05-17 00:04:00,
2013-05-16 19:09:00,68.2,61.1,29.89,SSE,157,0.0,0.0,78,0.00,,,0.00,WUHU21623XXSP,2013-05-17 00:09:00,
2013-05-16 19:14:00,67.8,60.8,29.89,SSE,157,0.0,0.0,78,0.00,,,0.00,WUHU21623XXSP,2013-05-17 00:14:00,
2013-05-16 19:19:00,67.6,60.6,29.89,SSE,157,0.0,0.0,78,0.00,,,0.00,WUHU21623XXSP,2013-05-17 00:19:00,
2013-05-16 19:24:00,67.5,60.6,29.89,SSE,157,0.0,0.0,78,0.00,,,0.00,WUHU21623XXSP,2013-05-17 00:24:00,
2013-05-16 19:29:00,67.3,60.4,29.89,SSE,157,0.0,0.0,78,0.00,,,0.00,WUHU21623XXSP,2013-05-17 00:29:00,
2013-05-16 19:34:00,67.1,60.0,29.89,SSE,157,0.0,0.0,78,0.00,,,0.00,WUHU21623XXSP,2013-05-17 00:34:00,
2013-05-16 19:39:00,66.7,59.7,29.89,SSE,157,0.0,0.0,78,0.00,,,0.00,WUHU21623XXSP,2013-05-17 00:39:00,
2013-05-16 19:44:00,66.7,59.7,29.89,SSE,157,0.0,0.0,78,0.00,,,0.00,WUHU21623XXSP,2013-05-17 00:44:00,
2013-05-16 19:49:00,66.4,59.7,29.89,SSE,157,0.0,0.0,79,0.00,,,0.00,WUHU21623XXSP,2013-05-17 00:49:00,
2013-05-16 19:54:00,66.2,59.5,29.89,SSE,157,0.0,0.0,79,0.00,,,0.00,WUHU21623XXSP,2013-05-17 00:54:00,
2013-05-16 19:59:00,66.0,59.3,29.90,South,180,0.0,0.0,79,0.00,,,0.00,WUHU21623XXSP,2013-05-17 00:59:00,
2013-05-16 20:04:00,65.8,59.2,29.90,South,180,0.0,0.0,79,0.00,,,0.00,WUHU21623XXSP,2013-05-17 01:04:00,
2013-05-16 20:09:00,65.5,59.2,29.90,South,180,0.0,0.0,80,0.00,,,0.00,WUHU21623XXSP,2013-05-17 01:09:00,
2013-05-16 20:14:00,65.1,59.0,29.89,South,180,0.0,0.0,80,0.00,,,0.00,WUHU21623XXSP,2013-05-17 01:14:00,
2013-05-16 20:19:00,64.8,58.8,29.90,South,180,0.0,0.0,81,0.00,,,0.00,WUHU21623XXSP,2013-05-17 01:19:00,
2013-05-16 20:24:00,64.6,58.6,29.90,South,180,0.0,0.0,81,0.00,,,0.00,WUHU21623XXSP,2013-05-17 01:24:00,
2013-05-16 20:29:00,64.4,58.6,29.90,South,180,0.0,0.0,82,0.00,,,0.00,WUHU21623XXSP,2013-05-17 01:29:00,
2013-05-16 20:34:00,64.2,58.6,29.90,South,180,0.0,0.0,82,0.00,,,0.00,WUHU21623XXSP,2013-05-17 01:34:00,
2013-05-16 20:39:00,64.2,58.6,29.90,South,180,0.0,0.0,82,0.00,,,0.00,WUHU21623XXSP,2013-05-17 01:39:00,
2013-05-16 20:44:00,64.0,58.6,29.90,South,180,0.0,0.0,83,0.00,,,0.00,WUHU21623XXSP,2013-05-17 01:44:00,
2013-05-16 20:49:00,64.0,58.8,29.91,South,180,0.0,0.0,83,0.00,,,0.00,WUHU21623XXSP,2013-05-17 01:49:00,
2013-05-16 20:54:00,64.0,58.8,29.90,South,180,0.0,0.0,83,0.00,,,0.00,WUHU21623XXSP,2013-05-17 01:54:00,
2013-05-16 20:59:00,63.9,58.6,29.90,South,180,0.0,0.0,83,0.00,,,0.00,WUHU21623XXSP,2013-05-17 01:59:00,
2013-05-16 21:04:00,63.7,58.4,29.91,SSW,202,0.0,0.0,83,0.00,,,0.00,WUHU21623XXSP,2013-05-17 02:04:00,
2013-05-16 21:09:00,63.7,58.7,29.91,SSW,202,0.0,0.0,84,0.00,,,0.00,WUHU21623XXSP,2013-05-17 02:09:00,
2013-05-16 21:14:00,63.9,58.9,29.91,SSW,202,0.0,0.0,84,0.00,,,0.00,WUHU21623XXSP,2013-05-17 02:14:00,
2013-05-16 21:19:00,64.0,59.1,29.91,SSW,202,0.0,0.0,84,0.00,,,0.00,WUHU21623XXSP,2013-05-17 02:19:00,
2013-05-16 21:24:00,63.9,58.9,29.91,SSW,202,0.0,0.0,84,0.00,,,0.00,WUHU21623XXSP,2013-05-17 02:24:00,
2013-05-16 21:29:00,63.7,58.9,29.91,SSW,202,0.0,0.0,84,0.00,,,0.00,WUHU21623XXSP,2013-05-17 02:29:00,
2013-05-16 21:34:00,63.7,58.7,29.91,SSW,202,0.0,0.0,84,0.00,,,0.00,WUHU21623XXSP,2013-05-17 02:34:00,
2013-05-16 21:39:00,63.7,58.7,29.91,SSW,202,0.0,0.0,84,0.00,,,0.00,WUHU21623XXSP,2013-05-17 02:39:00,
2013-05-16 21:44:00,63.7,59.1,29.92,SSW,202,0.0,0.0,85,0.00,,,0.00,WUHU21623XXSP,2013-05-17 02:44:00,
2013-05-16 21:49:00,63.7,59.1,29.92,SSW,202,0.0,0.0,84,0.00,,,0.00,WUHU21623XXSP,2013-05-17 02:49:00,
2013-05-16 21:54:00,63.7,58.7,29.92,SSW,202,0.0,0.0,84,0.00,,,0.00,WUHU21623XXSP,2013-05-17 02:54:00,
2013-05-16 21:59:00,63.5,58.6,29.92,SSW,202,0.0,0.0,84,0.00,,,0.00,WUHU21623XXSP,2013-05-17 02:59:00,
2013-05-16 22:04:00,63.5,58.6,29.92,SSW,202,0.0,0.0,84,0.00,,,0.00,WUHU21623XXSP,2013-05-17 03:04:00,
2013-05-16 22:09:00,63.3,58.4,29.92,SSW,202,0.0,0.0,84,0.00,,,0.00,WUHU21623XXSP,2013-05-17 03:09:00,
2013-05-16 22:14:00,63.3,58.4,29.92,SSW,202,0.0,0.0,84,0.00,,,0.00,WUHU21623XXSP,2013-05-17 03:14:00,
2013-05-16 22:19:00,63.1,58.5,29.92,SSW,202,0.0,0.0,85,0.00,,,0.00,WUHU21623XXSP,2013-05-17 03:19:00,
2013-05-16 22:24:00,63.1,58.5,29.92,SSW,202,0.0,0.0,85,0.00,,,0.00,WUHU21623XXSP,2013-05-17 03:24:00,
2013-05-16 22:29:00,63.1,58.5,29.92,SSW,202,0.0,0.0,85,0.00,,,0.00,WUHU21623XXSP,2013-05-17 03:29:00,
2013-05-16 22:34:00,63.1,58.5,29.93,SSW,202,0.0,0.0,85,0.00,,,0.00,WUHU21623XXSP,2013-05-17 03:34:00,
2013-05-16 22:39:00,63.0,58.4,29.93,SSW,202,0.0,0.0,85,0.00,,,0.00,WUHU21623XXSP,2013-05-17 03:39:00,
2013-05-16 22:44:00,63.0,58.4,29.93,SSW,202,0.0,0.0,85,0.00,,,0.00,WUHU21623XXSP,2013-05-17 03:44:00,
2013-05-16 22:49:00,63.0,58.4,29.92,SSW,202,0.0,0.0,85,0.00,,,0.00,WUHU21623XXSP,2013-05-17 03:49:00,
2013-05-16 22:54:00,63.0,58.4,29.92,SSW,202,0.0,0.0,85,0.00,,,0.00,WUHU21623XXSP,2013-05-17 03:54:00,
2013-05-16 22:59:00,62.8,58.5,29.92,SSW,202,0.0,0.0,86,0.00,,,0.00,WUHU21623XXSP,2013-05-17 03:59:00,
2013-05-16 23:04:00,62.8,58.5,29.92,SSW,202,0.0,0.0,86,0.00,,,0.00,WUHU21623XXSP,2013-05-17 04:04:00,
2013-05-16 23:09:00,62.8,58.5,29.92,SSW,202,0.0,0.0,85,0.00,,,0.00,WUHU21623XXSP,2013-05-17 04:09:00,
2013-05-16 23:14:00,62.6,58.4,29.92,SSW,202,0.0,0.0,86,0.00,,,0.00,WUHU21623XXSP,2013-05-17 04:14:00,
2013-05-16 23:19:00,62.6,58.4,29.93,SSW,202,0.0,0.0,86,0.00,,,0.00,WUHU21623XXSP,2013-05-17 04:19:00,
2013-05-16 23:24:00,62.8,58.5,29.93,SSW,202,0.0,0.0,86,0.00,,,0.00,WUHU21623XXSP,2013-05-17 04:24:00,
2013-05-16 23:29:00,62.8,58.5,29.93,SSW,202,0.0,0.0,86,0.00,,,0.00,WUHU21623XXSP,2013-05-17 04:29:00,
2013-05-16 23:34:00,62.8,58.5,29.93,SSW,202,0.0,0.0,86,0.00,,,0.00,WUHU21623XXSP,2013-05-17 04:34:00,
2013-05-16 23:39:00,63.0,58.7,29.93,SSW,202,0.0,0.0,86,0.00,,,0.00,WUHU21623XXSP,2013-05-17 04:39:00,
2013-05-16 23:44:00,62.8,58.5,29.93,SSW,202,0.0,0.0,86,0.00,,,0.00,WUHU21623XXSP,2013-05-17 04:44:00,
2013-05-16 23:49:00,62.8,58.5,29.93,SSW,202,0.0,0.0,86,0.00,,,0.00,WUHU21623XXSP,2013-05-17 04:49:00,
2013-05-16 23:54:00,62.6,58.4,29.93,SSW,202,0.0,0.0,86,0.00,,,0.00,WUHU21623XXSP,2013-05-17 04:54:00,
2013-05-16 23:59:00,62.4,58.2,29.93,SSW,202,0.0,0.0,86,0.00,,,0.00,WUHU21623XXSP,2013-05-17 04:59:00,